[[{"header":{"parameterUnit":"m.s-1","parameterCategory":1,"la1":30.2991,"la2":30.254,"lo1":-89.0895,"lo2":-89.0444,"dy":0.0017,"dx":0.0017,"nx":28,"ny":28,"refTime":"2025-03-18T03:00:00:Z","depth":0,"parameterNumber":2,"parameterNumberName":"U-component_of_WINDS"},"data":[0,0,0,0,0,0,0,0,0,0,0,0,0,0,0,0,0,0,0,0,0,0,0,0,0,0,0,0,0,0,0,0,0,0,0,0,0,0,0,0,0,0,0,0,0,0,0,0,0,0,0,0,0,0,0,0,0,0,1.5291,1.5292,0,1.545,1.5452,1.5453,1.5431,1.5429,1.5426,1.5424,1.5599,1.5606,1.5613,0,0,0,0,0,0,0,0,0,0,0,0,0,1.498,1.4986,1.529,1.5292,1.5294,1.5449,1.5452,1.5454,1.5432,1.5429,1.5425,1.5422,1.5596,1.5605,1.5613,0,0,0,0,0,0,0,0,0,0,0,0,0,1.5125,1.4988,1.529,1.5302,1.5304,1.5449,1.5452,1.5454,1.5433,1.5429,1.5425,1.5421,1.5594,1.5604,1.5615,1.5761,0,0,1.5647,1.5652,0,0,0,0,0,0,0,0,1.5117,1.5136,1.5298,1.5301,1.5304,1.5416,1.5406,1.5558,1.5434,1.5384,1.5423,1.5419,1.5542,1.5557,1.5596,1.5769,1.5777,1.5648,1.5655,1.566,1.5663,0,0,0,0,0,0,0,1.5107,1.513,1.5354,1.5301,1.5305,1.5303,1.5319,1.5435,1.5484,1.5388,1.5387,1.5406,1.5543,1.5586,1.56,1.578,1.5648,1.5658,1.5664,1.5668,1.6084,1.6089,0,0,0,0,0,0,1.5092,1.5121,1.5349,1.5359,1.5198,1.5312,1.533,1.5385,1.5483,1.5494,1.5409,1.5404,1.5569,1.5587,1.5606,1.5785,1.5659,1.567,1.5676,1.608,1.6086,1.609,0,0,0,0,0,0,1.5085,1.5112,1.5342,1.524,1.5269,1.5322,1.5383,1.539,1.5432,1.5498,1.5508,1.5442,1.5567,1.5591,1.5723,1.5791,1.5674,1.5684,1.6074,1.6082,1.6088,1.6145,0,0,0,0,0,0,1.5076,1.511,1.5163,1.5241,1.5274,1.5453,1.5387,1.5396,1.5449,1.5444,1.5532,1.5543,1.5565,1.5707,1.5733,1.5804,1.5693,1.6069,1.6078,1.6086,1.6137,1.6153,1.6166,0,0,0,0,0,1.5065,1.5175,1.5166,1.5194,1.5341,1.5456,1.5476,1.5496,1.5455,1.5511,1.5554,1.554,1.5779,1.572,1.575,1.5825,1.6064,1.6075,1.6085,1.613,1.6149,1.6166,0,0,0,0,0,0,1.5108,1.5185,1.5176,1.5313,1.5378,1.5452,1.5523,1.5516,1.5596,1.5589,1.5614,1.5635,1.5768,1.581,1.5743,1.5973,1.5917,1.5934,1.5941,1.596,1.5974,1.5962,1.5701,0,0,0,0,0,1.5133,1.5216,1.5281,1.5396,1.5428,1.547,1.5521,1.5531,1.5601,1.5629,1.5681,1.5753,1.5845,1.5904,1.5992,1.6143,1.6163,1.6209,1.6224,1.6235,1.625,1.6335,1.6357,1.6125,1.6124,1.6124,0,0,1.5186,1.5238,1.529,1.5405,1.5457,1.5546,1.5494,1.559,1.5658,1.5645,1.5772,1.5813,1.5895,1.6037,1.6103,1.6076,1.6319,1.6249,1.6257,1.6266,1.6348,1.637,1.639,1.6132,1.613,1.6129,0,0,1.5328,1.5375,1.5476,1.5528,1.5605,1.5633,1.5657,1.5733,1.5759,1.5886,1.5878,1.5962,1.6118,1.6177,1.6228,1.6394,1.6386,1.6422,1.6499,1.6582,1.66,1.6616,1.6677,1.6699,1.6436,1.6437,1.6437,0,1.5386,1.5516,1.5531,1.5628,1.5681,1.5669,1.5775,1.5826,1.593,1.5968,1.5936,1.6132,1.6187,1.6344,1.6384,1.6425,1.6457,1.6412,1.6595,1.6612,1.6628,1.6686,1.6709,1.6441,1.644,1.644,1.6439,0,1.5584,1.5675,1.5748,1.5844,1.5905,1.6006,1.6041,1.6101,1.6106,1.6139,1.627,1.6335,1.6436,1.6474,1.6481,1.6633,1.6614,1.6588,1.6532,1.6653,1.6709,1.6732,1.6446,1.6445,1.6444,1.6443,0,0,1.5758,1.586,1.5887,1.5931,1.6016,1.6089,1.6191,1.6286,1.6339,1.6411,1.65,1.6633,1.661,1.6667,1.6682,1.6754,1.6884,1.672,1.6723,1.675,1.7058,1.7077,1.7102,1.6878,1.6883,1.6886,1.7051,0,1.5909,1.6085,1.6102,1.6262,1.6348,1.6339,1.6429,1.6493,1.6526,1.6608,1.6646,1.674,1.6702,1.6736,1.6808,1.6853,1.6946,1.6841,1.6965,1.6969,1.6945,1.7131,1.7152,1.7304,1.7073,1.7077,1.7079,0,1.6109,1.6183,1.635,1.6424,1.6461,1.654,1.663,1.6706,1.6781,1.68,1.6864,1.6869,1.6979,1.6918,1.7072,1.7,1.7052,1.7082,1.7089,1.7102,1.7032,1.7151,1.7353,1.7376,1.7114,1.7111,1.7108,0,1.6221,1.6363,1.6481,1.652,1.6608,1.6665,1.6705,1.6775,1.6831,1.6911,1.6949,1.7042,1.7094,1.7168,1.72,1.7151,1.7353,1.7294,1.7375,1.7375,1.7419,1.7416,1.7633,1.7451,1.745,1.745,1.7449,0,1.6389,1.6492,1.6533,1.6606,1.6722,1.6743,1.6859,1.6898,1.696,1.7044,1.7044,1.7123,1.7159,1.7246,1.7272,1.7396,1.742,1.7441,1.7447,1.7442,1.7439,1.7477,1.7468,1.7456,1.7455,1.7453,1.7452,0,1.6533,1.6564,1.6693,1.6766,1.6787,1.6869,1.6934,1.7007,1.7039,1.7145,1.7172,1.7224,1.7326,1.7364,1.7489,1.7507,1.7652,1.7649,1.7625,1.7627,1.7707,1.7699,1.7958,1.7993,1.7786,1.7788,1.7789,0,1.6638,1.6717,1.6797,1.6851,1.6892,1.698,1.7037,1.7062,1.7122,1.7213,1.7276,1.7376,1.7457,1.7621,1.7673,1.777,1.777,1.7854,1.7785,1.7777,1.7773,1.7768,1.7778,1.7867,1.7869,1.7871,1.7872,0,1.6823,1.6834,1.6914,1.7,1.7067,1.7138,1.7206,1.7251,1.7287,1.7356,1.7457,1.752,1.7647,1.7748,1.7847,1.7893,1.7891,1.7893,1.7918,1.7914,1.7897,1.7909,1.7661,1.7888,1.7886,1.7885,1.7884,1.7884,1.6952,1.7022,1.7089,1.7179,1.7232,1.7296,1.7368,1.7409,1.7492,1.7594,1.7605,1.7716,1.7791,1.7923,1.7974,1.8063,1.8041,1.8076,1.8085,1.8094,1.81,1.7882,1.8082,1.8081,1.8081,1.8081,1.808,0,1.7138,1.718,1.7262,1.7356,1.7428,1.7414,1.749,1.7552,1.7647,1.7716,1.7795,1.7914,1.8012,1.8071,1.8171,1.8231,1.8233,1.8257,1.8254,1.8265,1.8113,1.8083,1.8254,1.8254,1.8254,1.8254,1.8254,1.8254,1.7243,1.736,1.738,1.7526,1.7569,1.7674,1.7718,1.7779,1.7833,1.7964,1.8044,1.8081,1.8147,1.8251,1.8342,1.8358,1.8395,1.8421,1.8435,1.8293,1.8275,1.8258,1.823,1.8429,1.8429,1.858,1.8581,1.8582]},{"header":{"parameterUnit":"m.s-1","parameterCategory":1,"la1":30.2991,"la2":30.254,"lo1":-89.0895,"lo2":-89.0444,"dy":0.0017,"dx":0.0017,"nx":28,"ny":28,"refTime":"2025-03-18T03:00:00:Z","depth":0,"parameterNumber":3,"parameterNumberName":"V-component_of_WINDS"},"data":[0,0,0,0,0,0,0,0,0,0,0,0,0,0,0,0,0,0,0,0,0,0,0,0,0,0,0,0,0,0,0,0,0,0,0,0,0,0,0,0,0,0,0,0,0,0,0,0,0,0,0,0,0,0,0,0,0,0,2.4119,2.4121,0,2.436,2.4362,2.4365,2.4407,2.4405,2.4403,2.4401,2.4644,2.4652,2.466,0,0,0,0,0,0,0,0,0,0,0,0,0,2.3688,2.3696,2.4118,2.4121,2.4124,2.4359,2.4362,2.4366,2.4408,2.4405,2.4403,2.44,2.4641,2.4651,2.4661,0,0,0,0,0,0,0,0,0,0,0,0,0,2.3897,2.3698,2.4118,2.4174,2.4181,2.4359,2.4363,2.4367,2.4408,2.4405,2.4402,2.4399,2.4638,2.465,2.4662,2.48,0,0,2.47,2.4706,0,0,0,0,0,0,0,0,2.3885,2.3912,2.4162,2.417,2.4179,2.435,2.43,2.4512,2.4409,2.4322,2.4401,2.4398,2.4548,2.4568,2.462,2.4811,2.4821,2.4702,2.4709,2.4715,2.4718,0,0,0,0,0,0,0,2.387,2.3902,2.4214,2.4166,2.4176,2.4185,2.4211,2.434,2.4449,2.4329,2.4333,2.4361,2.4552,2.4608,2.4626,2.4825,2.4701,2.4712,2.472,2.4725,2.5137,2.5141,0,0,0,0,0,0,2.3846,2.389,2.4206,2.4221,2.4021,2.4195,2.4224,2.4298,2.4448,2.4468,2.4363,2.4362,2.4588,2.4611,2.4634,2.4804,2.4714,2.4726,2.4733,2.5134,2.5138,2.5142,0,0,0,0,0,0,2.3837,2.3874,2.4196,2.4057,2.4098,2.4206,2.4288,2.4305,2.436,2.4474,2.4493,2.44,2.4586,2.4617,2.4758,2.4813,2.4732,2.4743,2.513,2.5135,2.514,2.5143,0,0,0,0,0,0,2.3825,2.3871,2.3926,2.4058,2.4106,2.4318,2.4292,2.4311,2.4382,2.4383,2.4513,2.4532,2.4586,2.4739,2.477,2.4828,2.4753,2.5126,2.5132,2.5138,2.5139,2.5148,2.5156,0,0,0,0,0,2.3809,2.3917,2.3928,2.3966,2.4177,2.4321,2.4348,2.441,2.4386,2.4441,2.4514,2.4528,2.4801,2.4753,2.4789,2.4851,2.5122,2.513,2.5138,2.5135,2.5146,2.5156,0,0,0,0,0,0,2.3788,2.3935,2.395,2.4103,2.4199,2.4328,2.4399,2.442,2.4524,2.452,2.459,2.4619,2.4756,2.4818,2.4761,2.499,2.496,2.4975,2.4945,2.4957,2.4965,2.4947,2.4763,0,0,0,0,0,2.3801,2.3908,2.403,2.4153,2.4201,2.4292,2.4357,2.4396,2.4497,2.4538,2.4621,2.4717,2.4825,2.4894,2.4999,2.5147,2.5175,2.5208,2.5216,2.5222,2.5235,2.5315,2.533,2.5168,2.5168,2.5167,0,0,2.3829,2.3923,2.3986,2.4151,2.4231,2.4337,2.4326,2.444,2.4519,2.4555,2.4693,2.4757,2.4869,2.5013,2.5081,2.5069,2.5285,2.5232,2.5237,2.5246,2.5325,2.534,2.5353,2.5173,2.5172,2.5171,0,0,2.3936,2.4018,2.4129,2.4208,2.4328,2.4387,2.4414,2.4539,2.4583,2.4723,2.4752,2.4845,2.503,2.5108,2.5172,2.5304,2.532,2.5336,2.538,2.5458,2.5471,2.5482,2.5528,2.5544,2.5348,2.5348,2.5348,0,2.3956,2.412,2.4183,2.4296,2.4367,2.4405,2.4516,2.459,2.4737,2.4784,2.4768,2.4999,2.5077,2.5239,2.5271,2.5322,2.5352,2.5322,2.5464,2.5476,2.5488,2.5532,2.5549,2.5349,2.5349,2.5349,2.5349,0,2.4137,2.425,2.4325,2.4467,2.4546,2.4658,2.4736,2.4808,2.4839,2.4899,2.5039,2.5134,2.5258,2.5299,2.5331,2.5465,2.5454,2.545,2.5421,2.5504,2.5546,2.5564,2.535,2.535,2.535,2.5349,0,0,2.4239,2.4413,2.444,2.4504,2.4637,2.4725,2.4836,2.4959,2.5018,2.5117,2.5211,2.5365,2.5362,2.5434,2.5474,2.5541,2.5638,2.553,2.5533,2.5545,2.5789,2.5791,2.5809,2.5649,2.5652,2.5655,2.5779,0,2.436,2.4563,2.4622,2.4792,2.4895,2.4931,2.5028,2.5118,2.5177,2.5271,2.5334,2.5441,2.543,2.5473,2.5542,2.5611,2.5687,2.5603,2.5735,2.5739,2.5706,2.5832,2.5835,2.5948,2.5796,2.5799,2.5801,0,2.453,2.4633,2.4813,2.4931,2.4977,2.5063,2.5178,2.5269,2.5371,2.5408,2.5488,2.5521,2.5636,2.56,2.5757,2.5698,2.5755,2.5797,2.5802,2.5817,2.5775,2.5849,2.5986,2.6002,2.5829,2.5826,2.5824,0,2.4584,2.4768,2.4899,2.4953,2.5094,2.5153,2.5215,2.5314,2.5383,2.5483,2.5528,2.5639,2.57,2.5784,2.5845,2.5814,2.5997,2.5966,2.6029,2.6027,2.6066,2.6063,2.6213,2.6103,2.6103,2.6103,2.6102,0,2.4714,2.4822,2.4925,2.5006,2.5127,2.5193,2.531,2.5373,2.546,2.5552,2.5588,2.5673,2.5749,2.5842,2.5891,2.6012,2.604,2.6071,2.6083,2.6068,2.6064,2.6106,2.61,2.6107,2.6106,2.6105,2.6105,0,2.4796,2.487,2.5014,2.5136,2.5169,2.5253,2.5356,2.5433,2.5492,2.5607,2.5637,2.5728,2.584,2.5909,2.6051,2.6083,2.6217,2.6225,2.6183,2.6188,2.6246,2.6239,2.6429,2.6456,2.6328,2.6329,2.633,0,2.4874,2.4958,2.5088,2.5153,2.5215,2.5318,2.5389,2.5455,2.5526,2.5648,2.571,2.5825,2.592,2.6096,2.6173,2.6281,2.6292,2.6351,2.6309,2.629,2.6292,2.6286,2.6293,2.6358,2.6359,2.636,2.636,0,2.5004,2.5035,2.5136,2.525,2.5333,2.5425,2.5516,2.5566,2.5647,2.5725,2.584,2.5914,2.6058,2.617,2.6284,2.6344,2.6365,2.6373,2.6393,2.6379,2.635,2.6365,2.6201,2.6369,2.6368,2.6367,2.6367,2.6366,2.5086,2.5161,2.5265,2.5375,2.5451,2.5535,2.5613,2.5681,2.5779,2.5903,2.5935,2.6055,2.6152,2.6308,2.637,2.6463,2.6454,2.6484,2.6491,2.6497,2.6498,2.6335,2.6484,2.6484,2.6484,2.6483,2.6483,0,2.5217,2.5284,2.5385,2.5512,2.5598,2.5611,2.5712,2.5783,2.5889,2.5978,2.6071,2.6201,2.6309,2.6394,2.6505,2.6562,2.6574,2.6589,2.6585,2.6598,2.65,2.6471,2.6577,2.6577,2.6577,2.6577,2.6577,2.6577,2.5295,2.5423,2.5466,2.5631,2.5698,2.5817,2.5873,2.595,2.6021,2.6166,2.6257,2.6312,2.6398,2.6515,2.6613,2.6635,2.6673,2.6686,2.6709,2.6616,2.6605,2.6596,2.6569,2.6694,2.6694,2.68,2.6801,2.6802]}]]